Retour au catalogue

STARLINK-34843

ActifCommunicationsVLEO
NORAD 65201·PAYLOAD·🇺🇸 United States

Lancé Aug 14, 2025 depuis Cape Canaveral Space Force Station

Loading…

Prochains Passages (prochaines 24 heures)

TLE

FraisSource: CelesTrak SupGP

Époque: Sep 15, 2026, 03:13 UTC

1 65201C 25176D   26258.13451389  .00079631  00000+0  23527-2 0  2586
2 65201  53.1593 348.6598 0001239  91.0770 258.8947 15.34350788    12

Suivez STARLINK-34843 en temps réel avec AllMySat

Download on the App Store